Vorticity
6 6 5 5 4 3 4 3 3 3 4 7 11 14 14 16 16 12 8 9 10 6 6 10 8 12 17 10 10 8 6 13 8 2 8 6 6 9 8 11 14 13 11 9 6 6 9 8 6 4 5 6 6 7 8 9 10 10 9 8 7 5 4 4 4 3 2 2 3 3 6 10 11 8 7 6 4 4 4 4 6 5 3 3 3 3
8 5 5 4 3 3 3 4 3 3 6 5 6 10 13 13 14 14 9 7 13 11 7 12 12 16 16 12 17 8 -2 8 5 1 8 6 6 5 2 7 11 11 14 14 9 8 9 7 5 6 7 8 7 8 10 11 10 10 8 6 5 5 4 4 4 4 4 3 3 4 7 11 11 8 7 7 5 4 3 5 5 3 2 4 4 3
7 6 6 4 5 3 3 6 4 3 7 5 4 8 11 12 12 14 10 4 10 13 13 13 7 11 22 23 21 9 -3 -0 4 9 12 6 2 -1 1 11 14 11 17 20 15 12 10 7 6 7 8 10 9 10 11 10 9 7 6 4 4 4 4 5 5 4 4 2 3 5 9 12 10 8 8 7 5 4 3 5 4 3 4 3 2 4
5 7 7 6 6 5 4 4 3 3 6 6 7 6 6 9 13 17 14 6 7 12 16 17 5 3 25 32 16 4 -2 -7 0 10 11 6 1 -4 -0 9 13 6 4 9 9 9 9 7 6 5 5 7 7 8 8 7 7 5 4 3 3 4 5 5 5 4 4 3 3 7 10 11 9 8 8 6 5 4 4 4 3 3 3 2 7 14
6 6 8 9 6 6 7 4 3 4 4 5 7 6 4 5 13 21 17 10 8 8 8 8 2 -0 20 33 14 -1 -3 -7 0 7 7 9 5 -1 -2 1 5 -0 -0 10 9 7 9 7 7 6 4 5 5 6 7 6 6 6 5 5 4 5 6 5 4 4 4 3 4 7 9 10 9 8 8 6 4 4 4 4 3 3 4 6 11 11
8 4 7 11 8 6 6 6 4 3 4 6 5 6 2 2 19 26 16 9 7 10 9 -2 -7 -1 20 34 18 2 -2 -4 1 4 7 11 7 4 1 -1 3 -1 1 14 9 1 6 8 10 12 8 5 4 6 7 6 7 7 6 6 6 6 5 5 5 4 4 4 5 6 8 9 8 8 7 4 4 4 3 3 2 3 5 3 2 1
8 6 7 8 9 9 6 5 4 2 6 7 5 5 -0 7 27 23 8 7 3 7 18 10 -6 -3 22 34 15 1 0 -0 1 1 3 6 2 3 2 -1 1 -0 4 21 18 2 2 9 12 14 13 8 5 5 5 6 6 6 6 6 6 5 5 6 6 5 4 4 5 6 8 8 9 8 7 5 4 3 4 3 3 4 5 3 4 6
9 7 6 6 8 10 9 6 4 5 6 3 6 7 2 13 25 8 -4 4 1 -7 8 22 8 -3 22 35 11 -3 -2 0 4 2 2 5 2 2 4 2 2 2 5 22 30 13 2 10 13 10 11 9 7 5 5 6 5 5 6 6 6 5 6 6 5 6 5 5 5 7 8 8 9 9 8 6 4 4 4 3 3 3 4 6 4 2
10 10 8 7 7 8 10 8 5 9 6 1 7 9 10 21 20 2 -3 6 10 -5 -10 14 14 -2 20 34 9 -5 -2 0 -0 -4 -2 5 6 3 2 2 4 5 -1 3 18 18 7 8 12 10 8 8 7 6 5 5 4 6 7 6 6 6 6 6 6 6 5 6 7 7 9 9 9 10 9 7 5 4 4 3 4 3 3 6 1 -0
9 12 11 11 11 8 9 10 8 11 5 0 8 9 15 26 16 2 3 10 18 5 -12 3 10 -4 9 23 6 -9 -7 -6 -10 -9 -2 4 6 3 0 1 2 5 2 -2 9 19 12 5 5 8 11 10 7 5 5 4 4 6 7 6 6 6 6 6 5 5 5 6 6 7 9 10 10 11 10 7 5 5 4 3 4 3 2 4 4 5
8 11 11 10 12 9 8 11 11 12 7 3 8 9 14 21 9 -4 0 9 12 5 -5 4 11 3 4 18 19 8 2 -0 -1 2 3 2 4 3 -1 -2 -0 4 7 9 18 22 15 9 5 5 10 10 7 5 4 3 4 5 6 7 6 5 5 4 3 4 5 5 6 7 9 10 11 11 10 7 5 4 4 3 4 3 3 4 6 6
8 9 10 9 10 10 9 10 10 12 9 4 4 10 17 17 6 -6 -3 4 1 -3 2 7 13 10 -0 8 18 12 6 4 6 9 4 -1 4 5 1 3 9 12 7 13 27 24 12 12 12 8 8 6 4 4 4 2 2 4 6 6 5 4 3 4 4 4 4 5 6 7 8 10 11 11 9 7 5 4 4 4 3 4 4 5 7 7
10 9 9 9 8 10 11 8 8 10 10 9 4 9 17 16 8 -3 -5 2 -1 -2 9 10 10 7 -8 -11 -3 0 6 7 7 11 6 1 3 5 9 16 19 10 -1 11 30 19 2 3 6 4 5 4 3 4 2 1 3 5 7 5 4 5 4 4 5 4 5 6 6 7 8 9 10 10 8 6 5 4 4 4 4 4 5 5 7 7
9 9 8 8 6 8 11 10 9 7 7 10 5 5 11 11 10 3 -6 -2 -1 0 10 9 10 9 -10 -20 -10 4 11 10 8 8 5 5 4 2 6 12 10 2 -0 15 30 22 5 1 4 5 7 9 9 7 3 4 7 6 7 6 5 6 5 5 6 5 6 7 7 8 7 8 9 9 8 5 4 4 5 5 4 5 5 5 8 8
8 7 7 7 5 6 8 10 10 11 14 12 6 8 9 4 7 9 1 -1 -0 3 10 9 5 3 -11 -15 1 10 5 4 6 4 6 11 6 2 6 6 2 3 4 3 9 16 13 7 8 10 11 12 10 7 7 9 9 6 6 7 6 6 5 5 5 5 6 6 7 8 8 9 9 8 8 6 5 5 5 5 5 5 6 6 8 8
12 11 12 12 10 8 7 9 10 10 15 16 12 7 5 5 10 11 4 3 7 10 10 7 0 -5 -9 -4 8 10 3 4 7 5 7 7 2 4 10 6 1 2 2 -0 4 11 11 7 7 8 11 11 6 5 8 9 7 6 6 6 5 5 4 3 3 3 4 5 7 9 9 9 9 9 9 7 7 6 5 6 6 5 6 7 8 8
14 13 13 14 14 13 9 8 11 10 7 14 17 8 6 17 15 3 -2 3 10 11 8 5 2 0 -0 0 4 9 10 11 11 11 6 0 1 7 9 4 1 -1 1 10 20 17 8 6 6 7 8 7 6 9 9 7 6 6 6 6 5 4 4 3 2 2 2 4 7 9 9 10 9 8 8 8 7 6 5 6 6 5 6 8 9 9
15 15 12 10 11 17 15 7 11 16 10 11 16 12 15 24 16 -2 -5 5 10 6 3 3 1 0 3 2 2 7 12 12 13 14 7 4 6 5 5 5 1 1 3 7 15 16 10 7 6 7 8 8 10 10 7 6 7 6 6 6 3 3 3 2 2 2 2 3 5 8 9 10 9 8 8 8 7 6 6 6 6 6 7 9 10 10
13 15 16 13 9 20 26 15 9 12 14 15 16 16 19 19 15 6 -5 -0 9 3 -1 5 5 -0 2 5 7 10 12 12 14 13 7 7 4 -5 -5 -2 -3 3 7 6 11 18 17 12 10 9 9 9 9 7 7 8 8 7 7 5 3 3 3 2 2 2 2 3 5 7 9 9 9 8 7 7 7 7 7 7 7 7 8 10 10 9
11 12 18 18 12 18 24 16 10 9 11 13 10 15 26 22 18 19 4 -4 4 4 -1 3 5 0 -2 4 9 11 14 15 15 13 4 -4 -4 -5 -8 -7 -2 2 -0 2 11 16 15 12 12 10 8 9 9 9 12 11 9 9 7 4 3 3 3 2 2 2 2 3 5 6 8 9 10 9 7 7 7 7 7 7 7 7 10 9 9 8
11 11 14 16 13 14 12 8 11 11 10 10 2 1 19 25 18 19 17 4 -2 2 3 0 1 4 3 3 3 2 10 17 18 16 10 2 1 4 1 2 9 2 -10 -4 8 10 11 10 10 11 10 9 11 13 13 11 10 9 6 4 3 2 3 3 3 3 2 2 4 6 7 8 10 9 8 8 7 7 7 7 7 9 10 8 7 8
9 13 15 14 13 12 11 7 6 5 4 10 11 3 8 21 21 14 16 15 1 -2 5 3 0 5 7 3 -1 -1 3 8 10 10 12 13 10 9 8 5 5 -1 -6 5 13 9 9 9 9 12 12 10 11 11 9 8 8 7 5 4 3 2 3 3 4 4 3 3 3 5 8 9 10 9 8 7 7 8 7 6 8 9 8 7 7 9
9 15 13 10 11 11 12 10 2 0 2 2 9 13 7 15 25 12 7 17 12 2 4 4 0 0 3 2 -1 -1 0 -0 1 2 4 9 12 11 9 4 2 4 7 14 15 9 6 8 10 12 10 10 10 7 6 7 7 6 5 4 3 3 3 4 5 5 4 3 2 5 9 9 10 10 8 7 7 7 7 6 9 9 7 7 7 9
11 14 11 5 9 10 11 14 4 -2 2 0 1 6 3 10 26 19 5 9 17 19 15 11 8 1 -4 -2 -3 -5 -0 1 1 2 1 -1 -0 2 6 8 8 10 8 5 6 8 8 8 9 9 10 12 9 5 6 8 7 5 4 3 3 3 4 5 6 5 5 3 1 6 10 10 11 10 8 7 7 7 7 7 9 9 7 6 7 8
12 14 11 4 6 9 7 15 18 7 2 3 1 -0 1 10 24 26 13 1 2 17 22 18 20 16 -1 -3 2 -2 -1 1 -3 -3 -5 -11 -10 -4 1 4 3 2 1 -2 3 13 12 8 7 8 11 13 8 4 7 7 6 4 3 2 2 2 4 5 6 6 6 3 2 7 10 11 13 11 8 8 7 7 7 7 9 9 7 7 7 7
9 14 15 6 4 9 1 1 14 16 8 7 6 4 3 6 15 22 20 8 -5 -1 12 16 22 25 9 2 11 15 15 19 16 13 11 8 8 5 0 0 0 -2 -1 -0 6 13 9 3 5 10 12 12 7 6 7 5 4 4 2 1 2 2 4 5 7 8 4 1 4 8 11 13 13 11 10 8 8 8 7 8 10 8 7 7 7 7
3 7 17 14 7 11 5 -5 -1 8 11 10 11 12 5 -0 11 20 17 16 4 -15 -9 10 19 21 13 -0 -1 4 9 16 21 22 24 24 24 18 7 5 6 4 3 4 6 8 4 -0 5 12 13 11 8 6 5 3 3 4 3 2 3 3 4 6 8 8 3 1 5 9 12 14 13 11 10 8 8 8 8 9 9 8 8 7 6 7
-0 -1 13 20 14 11 10 3 -0 6 11 9 9 14 7 -6 3 14 8 12 14 -7 -14 3 12 16 17 9 4 6 7 9 12 15 15 11 14 23 21 16 16 15 14 16 16 13 8 3 5 11 12 9 7 6 4 4 5 4 3 3 3 3 5 7 7 6 4 3 6 11 13 14 13 11 9 8 8 8 7 8 8 7 8 8 7 7
1 -2 5 13 13 10 10 7 4 6 8 9 10 14 11 -1 -1 8 6 3 9 7 0 2 7 13 18 14 11 15 17 16 15 17 17 9 9 19 25 21 17 12 8 12 19 20 14 7 7 12 12 8 7 7 5 5 5 3 3 3 3 4 6 7 7 6 5 5 8 13 14 13 12 10 9 8 8 8 8 8 7 6 8 8 7 7
9 6 9 12 8 6 8 7 6 8 8 13 20 18 9 1 -0 10 13 2 -2 4 6 4 6 13 15 9 2 3 9 11 10 12 16 13 7 6 10 14 13 9 5 5 11 15 14 12 12 13 11 7 7 7 6 5 3 3 4 3 3 5 6 7 7 5 5 7 11 14 13 12 11 10 10 9 8 8 8 8 7 6 8 8 6 7
13 12 18 21 11 6 9 4 5 15 15 13 21 23 11 1 -0 7 11 3 -2 6 12 7 1 3 7 8 4 -0 1 2 2 6 10 11 7 -2 -5 0 7 14 17 14 13 15 15 14 14 12 10 8 7 6 5 4 3 3 4 3 4 6 7 7 6 6 8 11 13 14 13 12 12 11 11 10 8 8 8 7 7 6 7 8 7 7
15 10 13 14 7 10 17 9 6 19 20 9 12 23 19 7 1 0 -0 -0 -1 3 11 10 3 0 2 8 11 6 2 1 1 5 5 4 10 8 1 0 5 14 19 15 12 13 13 14 13 10 9 7 6 6 5 4 5 3 3 5 6 7 7 7 6 8 12 13 14 14 13 13 13 12 11 10 9 9 7 6 6 6 7 9 8 8
17 11 8 0 -3 12 23 18 17 20 16 10 14 25 24 13 5 -2 -7 -1 3 0 2 5 5 3 -3 -4 3 8 8 4 0 8 13 8 8 11 12 10 6 7 12 14 12 12 13 13 12 10 9 7 6 5 5 4 4 4 5 7 7 7 6 6 8 11 13 13 13 13 12 12 12 11 11 10 9 8 7 6 5 6 8 10 9 8
13 12 12 -2 -8 5 15 20 27 20 9 12 20 24 19 13 14 10 -1 3 11 7 5 4 5 8 5 -2 -0 7 13 8 -2 8 27 28 17 9 10 13 9 6 10 15 15 14 11 9 9 8 7 6 5 5 5 5 4 5 7 8 7 6 5 6 9 12 13 13 12 12 11 10 10 9 9 9 8 7 7 6 6 7 9 11 10 8
7 11 20 12 2 4 5 14 27 18 3 11 21 19 10 0 1 7 9 12 17 16 13 8 2 4 8 8 9 10 14 12 -1 -8 2 20 29 23 12 10 11 10 11 13 13 13 11 8 7 7 6 5 5 6 6 5 5 6 8 7 6 5 5 8 12 13 13 12 11 11 10 10 9 8 7 7 7 7 6 6 6 7 9 11 10 8
4 12 23 22 14 11 7 9 16 10 -0 7 14 14 13 5 -2 2 9 8 8 8 7 6 4 2 1 4 8 8 8 8 4 -7 -14 -3 21 31 22 12 11 12 12 12 12 12 12 10 9 8 8 8 8 8 6 5 6 7 8 7 6 6 8 11 13 13 12 11 10 10 10 9 9 7 7 6 5 5 5 6 8 9 10 12 10 8
5 11 19 23 19 13 12 14 18 16 10 10 9 9 17 21 17 17 18 12 6 6 4 4 10 10 5 0 -3 -1 4 4 3 6 2 -5 5 22 23 15 14 16 14 13 11 10 10 11 11 11 11 9 9 7 6 5 7 8 8 6 7 8 10 12 12 11 10 10 10 10 10 10 10 8 7 7 6 6 7 9 11 12 12 12 10 8
4 4 8 17 19 12 10 15 21 24 21 10 4 10 22 28 20 14 17 15 8 3 2 5 10 11 9 5 -1 -3 0 1 3 10 10 2 5 19 21 12 9 12 12 11 11 10 10 10 10 10 9 8 8 7 6 7 8 7 7 7 8 9 10 10 9 8 8 8 9 10 10 10 11 11 10 9 9 10 11 11 13 14 13 12 10 8
1 9 7 10 18 16 10 4 3 15 26 17 2 3 17 27 20 5 4 12 10 0 -3 2 9 10 10 13 12 3 -3 3 13 17 14 10 12 16 16 11 8 8 9 9 9 8 8 7 8 8 8 8 8 8 8 8 8 7 8 8 8 8 8 8 8 8 8 9 9 9 10 10 11 12 12 11 10 9 10 11 12 14 14 12 9 8
3 9 6 4 12 18 15 3 -9 1 25 33 21 7 4 14 21 11 3 12 20 15 4 0 2 6 11 17 22 19 13 11 13 16 20 22 18 13 12 12 10 9 9 8 8 7 7 6 7 8 9 9 9 8 8 8 8 8 8 7 7 8 9 10 11 12 12 11 10 10 10 9 9 10 10 9 7 6 5 6 8 10 12 12 10 9
10 6 2 2 8 14 16 11 1 -0 11 24 28 21 10 7 13 15 11 10 13 14 11 8 7 8 8 5 4 11 20 17 12 19 29 26 15 10 11 11 10 10 10 9 9 8 7 7 8 8 9 8 8 7 7 7 7 8 9 9 10 11 13 14 15 15 13 12 11 12 11 9 8 9 8 7 6 4 4 4 4 5 7 10 12 12
15 12 9 8 8 9 12 13 12 9 7 6 7 12 15 14 12 15 18 13 9 11 11 10 15 25 27 15 2 7 25 29 26 30 32 20 10 11 11 9 8 9 8 8 8 7 7 7 7 7 7 7 7 8 8 9 10 11 11 11 11 12 13 14 13 11 10 10 11 12 11 10 7 6 6 7 8 8 7 7 7 7 6 8 10 12
13 13 15 16 14 13 11 8 7 9 12 13 7 2 11 20 18 14 14 11 12 23 26 15 10 19 31 31 25 27 35 36 30 27 21 13 12 12 9 7 7 6 6 7 7 7 7 7 8 8 9 10 10 10 11 10 8 8 8 9 10 12 14 13 10 8 7 9 12 13 12 10 7 5 6 7 7 6 6 7 8 9 10 10 10 10
13 9 9 9 9 12 12 9 6 3 7 17 18 9 7 15 17 12 10 9 12 24 36 31 15 6 9 16 19 19 19 18 15 13 11 10 11 10 8 7 7 6 7 8 7 8 9 8 9 9 9 9 10 9 7 4 3 5 9 11 12 13 12 10 7 5 5 8 13 15 14 11 7 5 4 4 5 8 11 14 17 19 19 17 15 13
18 13 8 5 5 6 8 11 13 9 6 9 12 8 3 7 14 13 14 20 21 17 18 20 18 14 13 14 12 7 5 6 6 6 7 6 6 8 8 7 7 7 8 8 7 8 8 6 7 7 7 8 7 4 3 5 8 12 15 15 15 14 12 10 7 4 5 10 15 17 16 12 10 8 8 11 15 19 21 22 22 21 19 17 17 16
28 24 15 9 7 3 2 6 12 14 12 9 8 8 4 6 16 18 16 23 28 22 11 7 11 16 17 14 12 9 9 13 13 11 10 7 6 8 8 7 7 8 7 7 6 5 6 6 6 6 6 6 5 5 9 12 14 15 16 15 15 14 13 13 12 9 9 10 13 15 14 13 14 14 16 20 21 20 18 14 11 11 11 11 12 12
24 29 31 27 23 18 13 11 12 15 14 10 11 17 16 14 20 23 19 20 26 29 27 20 16 18 16 13 13 13 13 15 14 11 9 8 9 10 10 8 8 7 6 6 6 6 8 8 7 8 8 7 9 12 14 13 12 11 10 10 11 12 12 13 13 12 9 8 9 11 11 12 14 16 17 18 17 14 11 9 7 8 9 9 9 9
3 14 32 38 36 32 27 23 23 28 31 30 30 31 23 15 17 19 15 12 13 18 24 22 15 12 13 12 11 8 6 8 9 7 6 5 6 8 7 5 4 5 6 6 8 9 10 9 10 11 12 13 14 12 9 7 8 8 8 8 10 12 13 13 12 12 11 10 11 13 14 14 15 15 13 11 10 8 7 7 8 9 9 9 9 8
1 3 12 16 17 19 19 16 14 18 26 30 31 28 18 11 14 16 12 8 6 5 9 12 9 7 9 12 11 9 8 8 8 7 6 6 5 6 7 7 7 8 9 9 10 10 9 9 10 11 12 14 12 7 4 5 9 11 9 8 7 9 12 16 18 18 17 16 15 14 14 13 11 8 7 6 6 8 8 8 8 9 8 9 10 10
6 4 3 2 3 4 7 7 3 2 6 9 9 12 12 11 13 15 12 10 9 5 5 7 8 8 9 9 10 10 9 10 11 10 10 10 10 9 9 9 9 9 9 10 10 8 8 9 9 9 10 10 8 5 4 8 10 10 9 9 12 16 22 23 22 20 19 17 16 14 12 10 8 7 8 9 9 9 9 8 7 8 8 8 8 9
7 6 5 5 4 2 2 4 3 2 3 3 2 4 7 8 9 10 10 9 10 9 9 9 9 9 9 8 8 8 8 8 9 8 7 8 7 6 7 7 7 8 9 9 9 9 9 10 10 9 9 8 8 7 8 10 10 10 12 17 20 20 17 11 8 9 11 11 12 11 9 9 9 9 9 9 9 9 8 7 6 7 8 8 8 8
Height
5712 5714 5719 5724 5729 5734 5738 5741 5744 5748 5751 5752 5755 5757 5760 5763 5767 5772 5773 5773 5775 5777 5780 5784 5786 5785 5786 5788 5789 5789 5790 5791 5792 5795 5799 5802 5804 5806 5807 5808 5810 5811 5813 5814 5815 5817 5818 5819 5820 5820 5821 5821 5822 5822 5822 5823 5823 5824 5824 5825 5826 5827 5828 5828 5828 5828 5828 5828 5829 5829 5828 5827 5826 5826 5826 5826 5827 5827 5826 5825 5824 5822 5820 5818 5815 5813
5707 5710 5716 5722 5728 5732 5735 5737 5741 5744 5747 5749 5752 5754 5757 5759 5763 5767 5768 5769 5772 5775 5778 5782 5783 5782 5784 5786 5787 5785 5786 5788 5790 5793 5796 5799 5802 5804 5806 5807 5808 5808 5810 5812 5813 5815 5816 5817 5818 5818 5819 5819 5820 5820 5820 5821 5821 5822 5822 5823 5824 5825 5825 5825 5826 5826 5826 5826 5826 5826 5825 5825 5824 5823 5823 5824 5824 5824 5823 5823 5821 5820 5818 5815 5812 5809
5701 5706 5714 5720 5724 5728 5731 5734 5737 5741 5744 5746 5749 5751 5754 5757 5760 5762 5763 5765 5768 5772 5776 5778 5779 5780 5782 5785 5784 5783 5783 5785 5789 5791 5794 5797 5799 5802 5804 5805 5807 5807 5808 5809 5811 5813 5814 5815 5816 5816 5817 5817 5818 5818 5819 5819 5819 5820 5820 5821 5822 5822 5823 5823 5823 5824 5824 5824 5823 5823 5822 5822 5821 5821 5821 5822 5822 5821 5820 5820 5818 5817 5815 5811 5808 5806
5698 5704 5712 5716 5720 5723 5727 5730 5733 5737 5740 5743 5745 5748 5752 5756 5758 5760 5761 5762 5765 5769 5773 5775 5777 5778 5780 5782 5782 5783 5782 5783 5787 5789 5791 5794 5797 5800 5802 5803 5804 5805 5806 5807 5809 5811 5812 5813 5814 5814 5815 5816 5816 5817 5817 5817 5817 5818 5819 5819 5819 5820 5820 5820 5821 5821 5821 5821 5820 5820 5820 5819 5819 5819 5819 5819 5819 5818 5817 5816 5815 5813 5810 5807 5805 5804
5697 5705 5711 5713 5716 5720 5723 5727 5730 5734 5737 5740 5743 5746 5751 5754 5757 5759 5759 5760 5762 5765 5768 5771 5772 5773 5776 5779 5780 5781 5781 5782 5785 5786 5788 5791 5794 5796 5798 5799 5800 5802 5804 5806 5807 5809 5811 5811 5812 5813 5813 5814 5814 5815 5815 5815 5815 5816 5816 5817 5817 5817 5818 5818 5818 5818 5818 5818 5818 5817 5817 5817 5817 5817 5817 5817 5816 5815 5815 5814 5812 5810 5807 5805 5803 5802
5694 5701 5706 5708 5712 5717 5720 5724 5727 5731 5735 5738 5741 5745 5749 5753 5756 5756 5757 5758 5759 5761 5764 5766 5768 5770 5773 5776 5778 5778 5778 5779 5782 5784 5786 5788 5790 5792 5794 5796 5797 5800 5803 5805 5806 5808 5809 5810 5811 5811 5812 5812 5812 5812 5813 5813 5813 5814 5814 5815 5815 5815 5815 5816 5816 5816 5815 5815 5815 5815 5814 5814 5814 5814 5815 5815 5814 5814 5813 5812 5810 5807 5804 5802 5801 5799
5689 5696 5700 5704 5708 5712 5716 5720 5724 5728 5731 5735 5739 5743 5747 5751 5753 5753 5754 5755 5756 5760 5763 5764 5765 5768 5771 5773 5775 5776 5776 5777 5778 5781 5783 5785 5787 5789 5791 5793 5795 5798 5801 5803 5805 5806 5807 5808 5809 5810 5810 5810 5810 5810 5811 5811 5812 5812 5813 5813 5813 5813 5813 5813 5813 5813 5813 5813 5812 5812 5812 5811 5811 5812 5812 5812 5812 5812 5811 5810 5808 5805 5802 5800 5798 5796
5685 5690 5694 5699 5703 5707 5711 5716 5721 5724 5727 5733 5739 5741 5744 5748 5751 5751 5751 5752 5754 5757 5760 5762 5765 5767 5769 5771 5773 5773 5774 5774 5776 5778 5780 5781 5784 5787 5790 5792 5794 5797 5799 5801 5803 5804 5805 5806 5807 5808 5808 5808 5808 5808 5808 5809 5809 5810 5810 5811 5811 5811 5811 5811 5810 5810 5810 5810 5809 5809 5808 5808 5808 5809 5810 5810 5809 5809 5809 5807 5805 5803 5800 5797 5794 5793
5682 5685 5690 5695 5698 5702 5707 5714 5719 5721 5725 5733 5737 5738 5742 5745 5747 5748 5748 5750 5752 5753 5754 5758 5762 5764 5767 5770 5771 5771 5771 5772 5773 5775 5778 5780 5783 5785 5788 5790 5792 5795 5798 5799 5801 5802 5802 5803 5804 5805 5805 5805 5805 5805 5805 5806 5807 5808 5808 5809 5809 5809 5808 5808 5808 5808 5807 5807 5807 5806 5805 5805 5805 5806 5807 5807 5807 5807 5806 5805 5803 5800 5798 5795 5791 5789
5680 5683 5689 5693 5696 5701 5707 5713 5716 5718 5724 5731 5734 5735 5739 5742 5744 5745 5746 5747 5749 5748 5749 5754 5758 5761 5764 5767 5767 5767 5769 5770 5772 5774 5776 5779 5782 5784 5786 5788 5791 5794 5796 5797 5799 5800 5800 5800 5802 5802 5803 5803 5803 5803 5803 5804 5805 5806 5806 5807 5806 5806 5806 5806 5806 5806 5805 5805 5804 5804 5803 5803 5802 5803 5804 5804 5804 5804 5803 5802 5800 5797 5796 5793 5789 5786
5676 5680 5685 5688 5693 5699 5705 5709 5712 5715 5721 5727 5729 5732 5736 5738 5741 5742 5743 5744 5744 5744 5747 5751 5756 5759 5762 5763 5764 5764 5766 5768 5770 5772 5775 5778 5780 5782 5785 5788 5790 5792 5794 5795 5796 5797 5798 5798 5799 5800 5800 5801 5801 5801 5801 5802 5803 5804 5804 5804 5804 5804 5804 5804 5804 5803 5803 5803 5802 5802 5801 5800 5800 5800 5800 5801 5801 5800 5800 5799 5797 5795 5793 5792 5788 5785
5670 5673 5678 5683 5689 5695 5699 5703 5708 5712 5717 5721 5725 5728 5731 5734 5737 5738 5739 5739 5739 5741 5745 5749 5754 5758 5759 5760 5761 5762 5763 5765 5767 5771 5774 5777 5779 5782 5785 5787 5789 5791 5792 5792 5793 5795 5796 5796 5797 5798 5798 5799 5799 5800 5800 5800 5801 5801 5801 5802 5802 5802 5802 5802 5802 5801 5801 5800 5800 5799 5799 5798 5798 5797 5797 5797 5797 5797 5797 5795 5794 5793 5791 5789 5787 5784
5664 5669 5674 5679 5684 5689 5693 5697 5702 5706 5710 5715 5719 5722 5725 5729 5732 5732 5734 5735 5735 5740 5744 5746 5750 5754 5756 5758 5758 5759 5761 5763 5766 5770 5774 5776 5779 5782 5784 5786 5787 5789 5789 5790 5791 5792 5794 5795 5795 5796 5796 5796 5797 5798 5798 5799 5798 5798 5799 5799 5799 5800 5799 5799 5799 5799 5798 5798 5797 5797 5796 5796 5795 5795 5794 5794 5794 5794 5793 5792 5791 5790 5788 5787 5784 5782
5660 5665 5669 5673 5678 5683 5688 5692 5696 5700 5704 5709 5713 5716 5719 5723 5726 5727 5730 5732 5734 5739 5742 5744 5747 5750 5752 5754 5756 5757 5758 5761 5764 5768 5771 5774 5777 5779 5781 5783 5785 5786 5787 5788 5788 5789 5791 5792 5793 5793 5793 5794 5795 5796 5796 5796 5796 5796 5796 5796 5797 5797 5797 5797 5797 5796 5796 5796 5795 5794 5793 5793 5792 5792 5792 5791 5791 5791 5790 5789 5788 5787 5786 5784 5782 5779
5657 5661 5665 5669 5674 5679 5684 5689 5694 5699 5703 5707 5712 5715 5717 5720 5723 5726 5728 5730 5733 5738 5740 5742 5744 5745 5747 5750 5754 5756 5757 5759 5762 5765 5768 5771 5774 5776 5778 5780 5782 5784 5785 5786 5787 5788 5788 5789 5789 5790 5791 5791 5792 5793 5793 5794 5794 5793 5794 5794 5795 5795 5795 5794 5794 5794 5794 5793 5793 5792 5791 5790 5790 5789 5789 5789 5788 5788 5787 5786 5785 5784 5783 5781 5779 5777
5655 5660 5665 5669 5672 5677 5682 5687 5692 5697 5700 5705 5709 5712 5714 5718 5722 5725 5727 5730 5733 5736 5738 5738 5738 5739 5742 5746 5751 5754 5755 5756 5759 5762 5764 5767 5771 5773 5776 5778 5780 5782 5783 5784 5785 5786 5786 5786 5786 5787 5788 5789 5789 5790 5791 5791 5791 5791 5792 5792 5793 5793 5792 5792 5792 5792 5791 5791 5790 5789 5789 5788 5787 5787 5786 5786 5785 5785 5784 5784 5783 5781 5780 5779 5777 5774
5653 5659 5664 5667 5671 5676 5680 5685 5689 5692 5696 5701 5703 5707 5712 5717 5721 5723 5726 5728 5731 5733 5734 5735 5735 5736 5740 5744 5748 5752 5753 5753 5755 5758 5761 5764 5768 5771 5773 5775 5777 5779 5781 5782 5782 5783 5783 5783 5783 5784 5785 5786 5787 5788 5788 5788 5789 5789 5790 5790 5790 5790 5790 5790 5789 5789 5789 5788 5788 5787 5786 5785 5784 5784 5783 5782 5782 5782 5781 5781 5780 5779 5777 5776 5774 5771
5651 5657 5661 5664 5668 5674 5679 5683 5686 5689 5694 5696 5699 5706 5712 5714 5717 5719 5722 5724 5726 5729 5731 5732 5733 5735 5738 5740 5744 5748 5749 5750 5752 5755 5758 5761 5765 5768 5770 5773 5775 5777 5779 5780 5780 5780 5781 5781 5781 5781 5782 5783 5784 5785 5785 5786 5786 5787 5788 5788 5788 5788 5788 5787 5787 5787 5786 5786 5785 5784 5783 5782 5782 5781 5780 5779 5779 5778 5778 5777 5777 5776 5774 5773 5771 5768
5649 5654 5659 5662 5667 5672 5676 5679 5682 5685 5690 5693 5698 5704 5707 5709 5712 5715 5717 5719 5722 5725 5727 5729 5730 5733 5735 5737 5741 5745 5748 5750 5751 5753 5756 5759 5762 5765 5768 5770 5772 5774 5776 5777 5778 5778 5778 5779 5779 5779 5780 5780 5781 5782 5782 5784 5784 5785 5786 5786 5786 5785 5785 5785 5785 5785 5784 5783 5782 5781 5781 5780 5779 5778 5777 5776 5776 5775 5775 5774 5773 5772 5771 5770 5768 5765
5647 5651 5656 5660 5665 5669 5672 5674 5677 5680 5684 5689 5694 5698 5701 5705 5709 5712 5714 5716 5719 5722 5724 5725 5727 5729 5731 5734 5739 5744 5747 5749 5751 5753 5755 5758 5761 5763 5765 5768 5770 5772 5774 5774 5775 5776 5776 5777 5777 5777 5777 5777 5778 5779 5780 5782 5782 5783 5783 5783 5783 5783 5783 5783 5782 5782 5781 5780 5779 5779 5778 5777 5776 5775 5774 5774 5773 5773 5772 5771 5770 5769 5768 5767 5765 5762
5644 5649 5653 5658 5662 5665 5667 5670 5674 5679 5682 5685 5689 5691 5696 5701 5705 5709 5712 5714 5716 5719 5721 5722 5724 5726 5730 5732 5737 5741 5744 5746 5749 5752 5754 5756 5758 5760 5763 5765 5767 5769 5770 5771 5772 5773 5774 5774 5774 5774 5774 5775 5776 5777 5778 5779 5779 5780 5780 5780 5780 5780 5780 5780 5779 5779 5778 5777 5777 5776 5775 5774 5773 5773 5772 5771 5770 5770 5769 5768 5767 5766 5765 5764 5762 5760
5641 5647 5651 5654 5659 5662 5665 5668 5671 5675 5679 5682 5686 5689 5693 5697 5701 5705 5708 5710 5714 5716 5718 5720 5723 5726 5729 5731 5734 5737 5740 5743 5746 5748 5751 5752 5754 5757 5759 5762 5764 5765 5767 5767 5768 5769 5770 5770 5770 5771 5772 5773 5774 5775 5775 5776 5776 5777 5777 5777 5777 5777 5777 5777 5776 5776 5775 5774 5774 5773 5772 5771 5770 5770 5769 5768 5767 5767 5766 5766 5765 5764 5762 5761 5759 5757
5639 5644 5648 5651 5655 5659 5662 5665 5669 5672 5675 5678 5683 5688 5691 5694 5697 5701 5704 5708 5711 5713 5716 5719 5721 5724 5727 5728 5731 5734 5737 5740 5743 5745 5747 5749 5751 5754 5755 5757 5759 5761 5763 5764 5764 5765 5766 5766 5767 5768 5769 5771 5771 5772 5772 5773 5773 5774 5774 5774 5774 5774 5774 5774 5773 5772 5772 5772 5771 5770 5769 5768 5767 5767 5766 5765 5765 5764 5763 5763 5762 5761 5760 5759 5757 5755
5638 5641 5645 5647 5651 5656 5660 5663 5667 5671 5673 5676 5680 5684 5688 5691 5695 5698 5702 5705 5708 5710 5713 5715 5717 5720 5723 5725 5728 5731 5734 5738 5740 5742 5744 5746 5748 5750 5752 5753 5755 5757 5759 5760 5761 5762 5762 5763 5764 5765 5767 5767 5768 5768 5769 5770 5770 5771 5770 5770 5770 5771 5771 5771 5770 5769 5769 5769 5768 5767 5766 5765 5764 5764 5763 5763 5762 5761 5761 5760 5759 5759 5758 5756 5755 5753
5635 5639 5642 5645 5648 5653 5657 5661 5665 5669 5672 5675 5678 5681 5685 5689 5692 5696 5698 5701 5704 5706 5709 5711 5714 5717 5720 5722 5724 5727 5731 5734 5737 5740 5742 5744 5745 5747 5749 5751 5752 5754 5756 5757 5757 5758 5759 5760 5761 5762 5763 5764 5765 5766 5766 5767 5767 5767 5767 5767 5767 5768 5768 5767 5767 5766 5766 5766 5765 5764 5763 5762 5762 5761 5760 5760 5759 5759 5758 5757 5757 5756 5755 5754 5753 5751
5634 5637 5640 5643 5645 5649 5653 5656 5661 5665 5669 5672 5676 5679 5683 5686 5689 5691 5694 5696 5699 5702 5706 5708 5711 5714 5717 5719 5722 5725 5727 5730 5733 5736 5738 5740 5742 5744 5746 5748 5749 5750 5751 5752 5753 5755 5756 5758 5758 5759 5760 5761 5762 5762 5763 5763 5763 5763 5763 5764 5765 5765 5765 5764 5763 5763 5763 5763 5762 5761 5760 5760 5759 5758 5758 5757 5756 5756 5755 5755 5755 5754 5753 5752 5750 5749
5631 5635 5639 5642 5645 5649 5652 5654 5658 5661 5664 5668 5671 5675 5679 5682 5684 5686 5689 5692 5696 5699 5702 5705 5708 5712 5714 5717 5719 5722 5724 5726 5729 5732 5734 5735 5737 5740 5742 5744 5745 5746 5746 5747 5749 5751 5753 5754 5755 5756 5757 5758 5758 5759 5759 5759 5759 5760 5761 5761 5762 5762 5761 5761 5760 5760 5760 5760 5759 5758 5757 5756 5756 5755 5755 5754 5754 5753 5753 5753 5752 5752 5751 5750 5748 5747
5627 5632 5637 5642 5646 5650 5652 5654 5657 5660 5662 5665 5667 5671 5674 5678 5680 5682 5684 5688 5692 5696 5698 5701 5705 5708 5711 5714 5717 5719 5721 5724 5726 5728 5730 5731 5733 5735 5737 5739 5740 5741 5742 5743 5745 5747 5749 5750 5751 5752 5753 5754 5755 5755 5755 5756 5757 5757 5758 5758 5758 5758 5758 5758 5757 5757 5757 5757 5756 5755 5754 5753 5753 5752 5752 5752 5751 5751 5750 5750 5750 5749 5749 5747 5746 5745
5625 5630 5635 5641 5645 5647 5648 5651 5653 5657 5660 5663 5666 5668 5672 5674 5676 5679 5681 5684 5688 5692 5695 5698 5702 5705 5708 5711 5713 5715 5718 5720 5722 5724 5726 5727 5728 5730 5732 5734 5735 5736 5738 5740 5741 5743 5745 5746 5747 5748 5749 5750 5751 5752 5752 5753 5754 5754 5755 5755 5755 5755 5755 5754 5754 5754 5754 5753 5753 5752 5751 5750 5750 5749 5749 5749 5748 5748 5748 5747 5747 5746 5746 5745 5744 5742
5624 5629 5634 5638 5641 5643 5644 5647 5650 5653 5657 5660 5663 5665 5668 5671 5674 5677 5679 5682 5685 5688 5691 5694 5698 5702 5704 5707 5709 5711 5714 5717 5719 5721 5722 5723 5724 5726 5728 5730 5731 5733 5735 5736 5737 5739 5740 5741 5743 5744 5745 5747 5748 5749 5749 5750 5751 5751 5751 5751 5752 5752 5751 5751 5751 5751 5751 5750 5749 5749 5748 5747 5747 5747 5746 5746 5745 5745 5745 5744 5744 5743 5743 5742 5741 5740
5624 5628 5632 5635 5638 5639 5641 5644 5647 5650 5653 5656 5659 5662 5665 5669 5673 5676 5678 5680 5683 5686 5687 5689 5693 5697 5700 5703 5705 5707 5709 5712 5715 5717 5718 5720 5721 5722 5724 5726 5727 5729 5731 5732 5733 5735 5735 5737 5738 5740 5742 5743 5744 5745 5746 5748 5748 5748 5748 5748 5748 5748 5748 5748 5748 5748 5747 5747 5746 5746 5745 5744 5744 5744 5743 5743 5742 5742 5742 5741 5741 5741 5740 5739 5738 5737
5623 5627 5630 5632 5634 5635 5638 5641 5644 5647 5650 5653 5656 5659 5663 5667 5671 5673 5675 5677 5680 5682 5684 5686 5689 5693 5697 5700 5701 5703 5706 5709 5711 5713 5715 5716 5718 5719 5721 5722 5725 5727 5728 5729 5729 5730 5731 5733 5735 5737 5738 5740 5741 5742 5744 5745 5745 5745 5745 5745 5745 5745 5745 5745 5745 5745 5744 5744 5743 5743 5742 5742 5741 5741 5740 5740 5739 5739 5739 5739 5738 5738 5737 5737 5736 5735
5622 5625 5628 5630 5631 5633 5635 5638 5642 5645 5649 5651 5654 5657 5660 5665 5668 5670 5672 5674 5676 5678 5680 5684 5687 5691 5694 5696 5698 5700 5703 5706 5708 5709 5710 5712 5714 5716 5718 5720 5723 5725 5725 5725 5725 5726 5728 5730 5732 5733 5735 5736 5738 5740 5741 5742 5742 5742 5741 5741 5741 5741 5741 5741 5742 5741 5741 5741 5740 5739 5739 5739 5738 5738 5737 5737 5737 5736 5736 5736 5736 5735 5735 5734 5733 5732
5622 5625 5627 5628 5630 5631 5634 5637 5640 5643 5646 5650 5653 5655 5658 5662 5665 5667 5669 5672 5675 5677 5679 5681 5685 5688 5690 5692 5695 5698 5700 5703 5705 5706 5706 5708 5710 5712 5715 5718 5720 5721 5721 5720 5721 5723 5725 5727 5728 5730 5731 5733 5735 5737 5738 5739 5739 5739 5738 5737 5738 5738 5738 5738 5739 5738 5738 5737 5737 5736 5736 5736 5735 5735 5735 5734 5734 5734 5733 5733 5733 5732 5732 5731 5730 5730
5621 5624 5626 5627 5629 5630 5633 5636 5638 5641 5645 5648 5651 5653 5655 5659 5662 5665 5667 5670 5673 5675 5677 5680 5682 5684 5686 5688 5691 5694 5697 5699 5701 5702 5704 5705 5706 5708 5711 5714 5716 5717 5717 5717 5718 5720 5722 5723 5725 5727 5728 5731 5733 5734 5735 5736 5735 5735 5734 5734 5734 5735 5735 5735 5735 5735 5735 5734 5734 5733 5733 5732 5732 5732 5732 5731 5731 5731 5730 5730 5730 5730 5729 5728 5728 5727
5620 5622 5624 5627 5628 5630 5632 5635 5637 5640 5644 5646 5648 5650 5654 5656 5659 5662 5664 5667 5670 5673 5675 5677 5679 5681 5683 5686 5688 5691 5693 5695 5697 5699 5701 5703 5705 5706 5707 5709 5711 5712 5713 5714 5716 5717 5718 5720 5722 5724 5726 5728 5730 5731 5732 5732 5731 5731 5731 5732 5731 5732 5732 5732 5732 5732 5732 5731 5731 5730 5730 5729 5729 5729 5729 5728 5728 5728 5727 5727 5727 5727 5726 5726 5725 5724
5619 5621 5623 5626 5628 5630 5632 5634 5636 5639 5641 5643 5646 5649 5652 5654 5657 5660 5663 5665 5667 5670 5672 5675 5677 5679 5682 5684 5686 5688 5690 5692 5694 5696 5698 5701 5703 5703 5703 5705 5707 5708 5710 5712 5713 5714 5716 5718 5720 5722 5724 5725 5726 5727 5728 5728 5728 5728 5728 5729 5729 5729 5729 5729 5729 5729 5728 5728 5728 5727 5727 5726 5726 5726 5726 5725 5725 5724 5724 5724 5723 5723 5723 5723 5722 5721
5618 5620 5622 5625 5627 5629 5631 5633 5635 5637 5639 5642 5644 5647 5649 5652 5655 5658 5661 5662 5665 5667 5670 5673 5675 5677 5679 5682 5684 5686 5688 5689 5691 5693 5696 5699 5700 5701 5701 5702 5704 5706 5708 5709 5710 5712 5714 5716 5718 5719 5720 5721 5722 5723 5724 5724 5724 5725 5725 5726 5726 5726 5726 5726 5726 5726 5725 5725 5724 5724 5723 5723 5723 5723 5722 5722 5721 5721 5721 5720 5720 5720 5720 5719 5719 5718
5616 5618 5621 5623 5625 5627 5629 5632 5634 5636 5638 5640 5643 5645 5647 5649 5652 5655 5658 5660 5662 5665 5668 5670 5673 5675 5677 5680 5682 5684 5685 5687 5689 5691 5693 5696 5697 5698 5699 5700 5702 5704 5705 5706 5708 5710 5712 5714 5715 5716 5716 5717 5719 5720 5720 5721 5721 5722 5722 5723 5723 5723 5723 5723 5723 5722 5722 5722 5721 5721 5720 5720 5720 5720 5719 5719 5718 5718 5717 5717 5717 5716 5716 5716 5716 5715
5614 5617 5619 5621 5624 5626 5628 5630 5633 5635 5637 5639 5641 5643 5646 5648 5650 5653 5655 5658 5661 5664 5666 5668 5670 5673 5675 5677 5679 5681 5683 5684 5685 5687 5690 5692 5693 5695 5696 5698 5700 5701 5703 5704 5706 5708 5709 5711 5711 5712 5713 5715 5716 5717 5718 5718 5718 5718 5719 5719 5720 5720 5720 5720 5719 5719 5719 5718 5718 5718 5717 5717 5717 5717 5716 5716 5715 5715 5714 5714 5714 5713 5713 5713 5712 5712
5613 5615 5617 5620 5622 5625 5627 5629 5632 5634 5636 5638 5639 5642 5644 5646 5648 5651 5654 5657 5661 5663 5664 5666 5668 5670 5672 5674 5677 5678 5679 5680 5682 5685 5686 5688 5689 5691 5694 5695 5697 5699 5700 5702 5704 5705 5707 5708 5709 5710 5711 5712 5714 5714 5715 5715 5715 5715 5716 5716 5716 5716 5716 5716 5716 5715 5715 5715 5715 5714 5714 5714 5714 5714 5713 5713 5712 5712 5711 5711 5711 5710 5710 5710 5709 5709
5611 5614 5616 5618 5621 5623 5625 5628 5630 5633 5635 5637 5639 5641 5644 5645 5648 5650 5653 5656 5658 5659 5661 5663 5665 5666 5668 5671 5673 5675 5675 5677 5680 5682 5683 5685 5687 5689 5691 5693 5695 5697 5698 5700 5701 5703 5704 5705 5706 5707 5708 5710 5710 5711 5712 5712 5712 5712 5712 5712 5712 5712 5712 5712 5712 5712 5712 5712 5711 5711 5711 5711 5711 5711 5710 5710 5709 5709 5708 5708 5707 5707 5707 5706 5706 5706
5610 5612 5614 5616 5618 5621 5623 5626 5629 5632 5634 5636 5639 5641 5643 5645 5647 5649 5651 5652 5653 5655 5657 5659 5661 5663 5665 5668 5670 5672 5673 5675 5677 5679 5681 5683 5685 5688 5690 5691 5693 5695 5696 5698 5699 5700 5702 5703 5704 5705 5706 5706 5707 5708 5709 5709 5709 5709 5709 5709 5709 5709 5709 5709 5709 5709 5709 5708 5708 5708 5708 5708 5708 5707 5707 5707 5706 5705 5705 5704 5704 5704 5703 5703 5703 5702
5607 5610 5611 5614 5617 5619 5622 5625 5628 5631 5633 5635 5637 5640 5641 5643 5645 5646 5647 5649 5650 5651 5653 5656 5658 5661 5663 5666 5668 5670 5672 5674 5676 5678 5680 5681 5684 5686 5688 5689 5691 5692 5694 5695 5697 5698 5699 5700 5701 5702 5703 5704 5705 5705 5705 5705 5706 5706 5706 5706 5706 5706 5706 5706 5706 5706 5706 5705 5705 5705 5705 5704 5704 5704 5704 5703 5703 5702 5701 5701 5700 5700 5700 5699 5699 5699
5605 5608 5610 5613 5615 5618 5621 5624 5626 5628 5631 5633 5635 5637 5639 5640 5642 5643 5645 5646 5648 5649 5651 5654 5656 5659 5661 5663 5665 5668 5671 5673 5675 5677 5678 5680 5682 5684 5685 5687 5689 5690 5692 5693 5694 5695 5696 5697 5698 5699 5700 5701 5702 5702 5702 5702 5702 5702 5702 5702 5702 5702 5703 5702 5702 5702 5702 5702 5702 5701 5701 5701 5701 5700 5700 5700 5699 5699 5698 5698 5697 5697 5697 5696 5696 5696
5603 5606 5608 5610 5613 5616 5618 5621 5623 5625 5628 5630 5632 5634 5636 5637 5639 5640 5642 5643 5645 5647 5649 5652 5654 5657 5659 5661 5663 5666 5668 5670 5672 5674 5676 5677 5679 5682 5683 5685 5686 5688 5689 5690 5691 5692 5693 5694 5695 5696 5698 5698 5699 5699 5699 5699 5699 5699 5699 5699 5699 5699 5699 5699 5699 5699 5699 5699 5698 5698 5698 5697 5697 5697 5697 5697 5697 5696 5696 5695 5695 5694 5694 5694 5693 5693
5603 5605 5607 5608 5611 5614 5616 5618 5620 5622 5625 5627 5629 5630 5632 5635 5637 5638 5639 5641 5643 5644 5647 5650 5652 5654 5656 5659 5662 5664 5666 5668 5670 5672 5673 5675 5677 5680 5681 5682 5684 5685 5686 5687 5688 5689 5690 5691 5692 5693 5694 5695 5696 5696 5696 5696 5696 5696 5696 5696 5696 5696 5696 5696 5696 5696 5696 5695 5695 5695 5695 5695 5695 5695 5694 5694 5694 5694 5693 5693 5693 5692 5692 5691 5691 5690
5604 5606 5607 5608 5610 5612 5615 5617 5619 5620 5622 5624 5626 5628 5630 5633 5635 5636 5638 5640 5641 5643 5645 5648 5650 5653 5655 5657 5660 5662 5664 5666 5668 5670 5671 5673 5675 5677 5678 5679 5680 5682 5683 5684 5685 5686 5687 5688 5689 5689 5690 5691 5692 5693 5693 5692 5692 5693 5693 5693 5693 5693 5693 5693 5692 5692 5692 5693 5693 5692 5692 5692 5692 5692 5692 5691 5691 5691 5691 5690 5690 5689 5689 5688 5688 5687
5605 5607 5608 5609 5611 5612 5615 5616 5618 5620 5621 5623 5625 5627 5629 5631 5633 5635 5637 5639 5641 5643 5645 5647 5649 5652 5654 5656 5658 5660 5662 5664 5666 5668 5670 5671 5672 5674 5675 5677 5677 5678 5680 5681 5682 5683 5684 5684 5685 5686 5687 5688 5689 5689 5690 5690 5689 5689 5689 5690 5690 5690 5689 5689 5689 5689 5689 5689 5690 5690 5689 5689 5689 5689 5689 5688 5688 5688 5687 5687 5687 5686 5686 5685 5685 5684
5606 5607 5609 5610 5612 5613 5615 5617 5618 5620 5621 5623 5625 5626 5628 5630 5632 5634 5636 5638 5640 5642 5644 5646 5648 5650 5652 5654 5656 5658 5660 5662 5664 5665 5667 5669 5670 5671 5673 5674 5674 5675 5677 5678 5679 5680 5680 5681 5682 5683 5683 5684 5685 5686 5687 5687 5686 5686 5686 5686 5687 5687 5686 5686 5686 5686 5686 5687 5687 5687 5687 5686 5686 5686 5686 5685 5685 5685 5684 5684 5684 5683 5683 5682 5681 5681
5606 5607 5608 5610 5611 5613 5614 5615 5617 5619 5620 5622 5623 5625 5627 5629 5631 5633 5635 5637 5638 5640 5642 5644 5646 5648 5650 5652 5654 5656 5657 5659 5661 5663 5664 5666 5667 5668 5670 5671 5672 5672 5674 5675 5676 5676 5677 5678 5679 5679 5680 5681 5681 5682 5683 5683 5684 5684 5683 5683 5683 5684 5684 5684 5684 5684 5684 5684 5684 5684 5684 5683 5683 5683 5682 5682 5682 5682 5681 5681 5681 5680 5680 5679 5678 5678